Voltar ao catálogo

STARLINK-34207

AtivoComunicaçõesVLEO
NORAD 64333·PAYLOAD·🇺🇸 United States

Lançado Jun 10, 2025 de Cape Canaveral Space Force Station

Loading…

Próximas Passagens (próximas 24 horas)

TLE

AtualizadoSource: CelesTrak SupGP

Época: Sep 14, 2026, 20:41 UTC

1 64333C 25124S   26257.86229167 -.00031498  00000+0 -11410-2 0  2578
2 64333  42.9991 133.4889 0001391 267.7527 337.8131 15.27589145    15

Acompanhe STARLINK-34207 em tempo real com AllMySat

Download on the App Store